Flag for Germany Weather past 2 weeks in Schwäbisch Gmünd, Baden-Württemberg, Germany

31 °F


Feels Like: 22 °F
Forecast: 34 / 46 °F
Wind: 10 mph from West

Location: Stoetten

Current Time: Nov 28, 2015 at 10:07:46 PM

Latest Report: Nov 28, 2015 at 9:00 PM

Visibility: 44 mi

Pressure: 30.21 "Hg

Humidity: 79%

Dew point: 25 °F

Location of Schwäbisch GmündLocation

Historic Weather in Schwäbisch Gmünd — Graph


Schwäbisch Gmünd temperature yesterday

Maximum temperature yesterday: 32 °F (at 3:00 PM)
Minimum temperature yesterday: 25 °F (at 10:00 PM)
Average temperature yesterday: 29 °F

Past Weeks' High & Low Weather Summary

High60 °F (Nov 16, 2:00 PM)100% (Nov 20, 9:00 AM)30.47 "Hg (Nov 20, 9:00 AM)
Low24 °F (Nov 24, 5:00 PM)45% (Nov 16, 2:00 PM)29.41 "Hg (Nov 21, 2:00 PM)
Average38 °F87%30.02 "Hg
* Reported Nov 13 9:00 PM — Nov 28 9:00 PM, Schwäbisch Gmünd, Weather by CustomWeather, © 2015

Note: Actual official high and low records may vary slightly from our data, if they occured in-between our weather recording intervals... More about our weather records


Schwäbisch Gmünd weather history for previous 24 hours

Time TempWeatherWind HumidityBarometerVisibility
9:00 PM
Sat, Nov 28
31 °FOvercast.10 mph79%30.21 "Hg43 mi
8:00 PM32 °FOvercast.9 mph82%30.20 "Hg37 mi
7:00 PM32 °FOvercast.8 mph85%30.18 "Hg28 mi
6:00 PM32 °FLow clouds.9 mph96%30.18 "Hg25 mi
5:00 PM32 °FLight snow. Low clouds.9 mph100%30.15 "Hg2 mi
4:00 PM32 °FLight snow. Dense fog.9 mph100%30.12 "Hg0 mi
3:00 PM32 °FLight snow. Dense fog.10 mph100%30.10 "Hg0 mi
2:00 PM32 °FLight snow. Ice fog.9 mph100%30.07 "Hg0 mi
1:00 PM31 °FSnow. Ice fog.9 mph100%30.04 "Hg0 mi
12:00 PM31 °FLight snow. Ice fog.12 mph100%30.01 "Hg0 mi
11:00 AM30 °FLight snow. Ice fog.9 mph100%30.01 "Hg0 mi
10:00 AM30 °FLight snow. Low clouds.6 mph100%29.97 "Hg1 mi
9:00 AM28 °FLight snow. Low clouds.6 mph99%29.96 "Hg1 mi
7:00 AM28 °FLight snow. Overcast.6 mph86%29.94 "Hg22 mi
5:00 AM25 °FOvercast.5 mph89%29.97 "Hg7 mi
4:00 AM25 °FClear.6 mph89%29.99 "Hg8 mi
3:00 AM27 °FOvercast.7 mph88%29.99 "Hg8 mi
10:00 PM
Fri, Nov 27
25 °FLow clouds.2 mph100%30.05 "Hg0 mi
Weather by CustomWeather, © 2015

See weather overviewHow to use our weather pages